Location: LDNL
(36.4545°S, 141.6685°E)
Time: 14:56:14
(UTC+11:00)

Tiros 1 - All Passes

Search period start: 22 March 2023 00:00
Search period end: 01 April 2023 00:00
Orbit: 628 x 662 km, 48.4° (Epoch: 21 March)

Date Brightness Start Highest point End Pass type
(mag) Time Alt. Az. Time Alt. Az. Time Alt. Az.
22 Mar - 01:32:14 10° SW 01:36:44 43° SSE 01:41:15 10° E night (unlit)
22 Mar - 03:14:27 10° WSW 03:18:52 39° NW 03:23:17 10° NNE night (unlit)
22 Mar - 19:06:04 10° NW 19:10:34 55° NE 19:15:08 10° ESE daylight
22 Mar - 20:48:38 10° W 20:52:53 34° SSW 20:57:09 10° SE visible
22 Mar - 22:32:45 10° SW 22:36:05 19° S 22:39:25 10° SE visible
23 Mar - 00:15:31 10° SW 00:19:27 25° SSE 00:23:22 10° ESE night (unlit)
23 Mar - 01:57:22 10° SW 02:02:06 83° SE 02:06:51 10° NE night (unlit)
23 Mar - 03:40:46 10° W 03:43:46 17° NW 03:46:48 10° N night (unlit)
23 Mar - 17:50:35 10° N 17:54:00 21° NE 17:57:27 10° E daylight
23 Mar - 19:31:09 10° WNW 19:35:46 69° SW 19:40:25 10° SE daylight
23 Mar - 21:14:49 10° WSW 21:18:32 23° SSW 21:22:18 10° SE visible
23 Mar - 22:58:32 10° SW 23:01:56 19° S 23:05:21 10° SE visible
24 Mar - 00:40:37 10° SW 00:45:03 39° SSE 00:49:29 10° E night (unlit)
24 Mar - 02:22:45 10° WSW 02:27:15 44° NW 02:31:44 10° NNE night (unlit)
24 Mar - 18:14:29 10° NNW 18:18:57 49° NE 18:23:26 10° ESE daylight
24 Mar - 19:56:53 10° W 20:01:11 36° SSW 20:05:32 10° SE visible
24 Mar - 21:41:00 10° SW 21:44:21 19° S 21:47:42 10° SE visible
24 Mar - 23:23:53 10° SW 23:27:44 24° SSE 23:31:34 10° ESE visible
25 Mar - 01:05:44 10° SW 01:10:26 75° SE 01:15:10 10° ENE night (unlit)
25 Mar - 02:48:52 10° W 02:52:10 19° NW 02:55:29 10° N night (unlit)
25 Mar - 16:59:15 10° N 17:02:24 18° NE 17:05:35 10° E daylight
25 Mar - 18:39:29 10° WNW 18:44:07 76° SSW 18:48:47 10° SE daylight
25 Mar - 20:23:01 10° WSW 20:26:49 24° SSW 20:30:38 10° SE visible
25 Mar - 22:06:51 10° SW 22:10:12 19° S 22:13:34 10° SE visible
25 Mar - 23:49:00 10° SW 23:53:21 36° SSE 23:57:43 10° E visible
26 Mar - 01:31:04 10° WSW 01:35:36 50° NW 01:40:10 10° NNE night (unlit)
26 Mar - 17:22:56 10° NNW 17:27:19 43° NE 17:31:44 10° ESE daylight
26 Mar - 19:05:07 10° W 19:09:29 39° SSW 19:13:54 10° SE daylight
26 Mar - 20:49:13 10° SW 20:52:36 19° S 20:55:59 10° SE visible
26 Mar - 22:32:15 10° SW 22:35:59 23° SSE 22:39:44 10° ESE visible
27 Mar - 00:14:05 10° SW 00:18:46 68° SSE 00:23:27 10° ENE night (unlit)
27 Mar - 01:57:01 10° W 02:00:33 21° NW 02:04:07 10° N night (unlit)
27 Mar - 16:07:57 10° NNE 16:10:48 16° NE 16:13:39 10° E daylight
27 Mar - 17:47:47 10° NW 17:52:26 84° SW 17:57:07 10° SE daylight
27 Mar - 19:31:13 10° WSW 19:35:05 25° SSW 19:38:59 10° SE daylight
27 Mar - 21:15:08 10° SW 21:18:26 19° S 21:21:45 10° SE visible
27 Mar - 22:57:21 10° SW 23:01:38 34° SSE 23:05:55 10° E visible
28 Mar - 00:39:22 10° WSW 00:43:57 56° NW 00:48:33 10° NE night (unlit)
28 Mar - 16:31:23 10° NNW 16:35:41 38° NE 16:40:00 10° ESE daylight
28 Mar - 18:13:21 10° W 18:17:47 42° SSW 18:22:14 10° SE daylight
28 Mar - 19:57:25 10° SW 20:00:50 20° S 20:04:16 10° SE visible
28 Mar - 21:40:34 10° SW 21:44:15 22° SSE 21:47:55 10° ESE visible
28 Mar - 23:22:26 10° SW 23:27:04 61° SSE 23:31:43 10° ENE visible
29 Mar - 01:05:10 10° W 01:08:55 24° NW 01:12:41 10° N night (unlit)
29 Mar - 15:16:44 10° NNE 15:19:11 14° NE 15:21:38 10° E daylight
29 Mar - 16:56:06 10° NW 17:00:45 88° NNE 17:05:26 10° SE daylight
29 Mar - 18:39:23 10° WSW 18:43:20 26° SSW 18:47:18 10° SE daylight
29 Mar - 20:23:23 10° SW 20:26:40 19° S 20:29:58 10° SE visible
29 Mar - 22:05:43 10° SW 22:09:54 32° SSE 22:14:06 10° E visible
29 Mar - 23:47:39 10° WSW 23:52:17 63° NW 23:56:55 10° NE visible
30 Mar - 15:39:50 10° NNW 15:44:01 34° NE 15:48:14 10° ESE daylight
30 Mar - 17:21:35 10° WNW 17:26:04 46° SSW 17:30:35 10° SE daylight
30 Mar - 19:05:36 10° WSW 19:09:04 20° S 19:12:33 10° SE daylight
30 Mar - 20:48:53 10° SW 20:52:29 21° SSE 20:56:05 10° ESE visible
30 Mar - 22:30:46 10° SW 22:35:22 56° SSE 22:39:58 10° ENE visible
31 Mar - 00:13:21 10° WSW 00:17:17 27° NW 00:21:12 10° N night (unlit)
31 Mar - 14:25:38 10° NNE 14:27:33 12° NE 14:29:28 10° ENE daylight
31 Mar - 16:04:26 10° NW 16:09:04 79° NE 16:13:45 10° ESE daylight
31 Mar - 17:47:34 10° W 17:51:36 28° SSW 17:55:38 10° SE daylight
31 Mar - 19:31:37 10° SW 19:34:53 18° S 19:38:10 10° SE daylight
31 Mar - 21:14:03 10° SW 21:18:10 30° SSE 21:22:17 10° E visible
31 Mar - 22:55:57 10° WSW 23:00:36 71° NW 23:05:15 10° NE visible
